Location: Newark
(29.7944°N, 96.1047°W)
Time: 03:35:30
(UTC+00:00)

N. Korean satellite - Visible Passes

Search period start: 14 October 2019 00:00
Search period end: 24 October 2019 00:00
Orbit: 455 x 508 km, 97.2° (Epoch: 13 October)

Date Brightness Start Highest point End Pass type
(mag) Time Alt. Az. Time Alt. Az. Time Alt. Az.
14 Oct 10.3 00:39:04 10° WSW 00:40:29 12° W 00:41:53 10° WNW visible
15 Oct 9.1 00:12:08 10° SSW 00:15:06 28° W 00:18:05 10° NW visible
15 Oct 8.9 11:43:52 10° NE 11:47:04 30° E 11:50:18 10° SSE visible
16 Oct 10.2 11:19:50 10° ENE 11:21:42 14° E 11:23:35 10° SE visible
18 Oct 10.0 00:30:33 10° SW 00:32:40 15° W 00:34:46 10° WNW visible
18 Oct 7.4 12:01:02 10° NNE 12:04:36 57° E 12:08:12 10° S visible
19 Oct 9.4 11:36:18 10° NE 11:39:17 24° E 11:42:17 10° SSE visible
20 Oct 10.5 11:13:00 10° E 11:13:53 11° E 11:14:46 10° ESE visible
22 Oct 9.7 00:22:14 10° SW 00:24:47 20° W 00:27:22 10° NW visible
22 Oct 8.1 11:53:18 10° NNE 11:56:48 43° E 12:00:19 10° S visible
23 Oct 9.8 11:28:46 10° NE 11:31:27 19° E 11:34:08 10° SE visible
